Time,TemperatureF,DewpointF,PressureIn,WindDirection,WindDirectionDegrees,WindSpeedMPH,WindSpeedGustMPH,Humidity,HourlyPrecipIn,Conditions,Clouds,dailyrainin,SoftwareType,DateUTC
2013-03-09 00:14:00,47.8,38.0,30.04,SSW,199,2.0,8.0,68,0.00,,,0.00,weatherlink.com 1.10,2013-03-09 08:14:00,
2013-03-09 00:29:00,47.9,38.0,30.05,WSW,242,2.0,6.0,68,0.00,,,0.00,weatherlink.com 1.10,2013-03-09 08:29:00,
2013-03-09 00:44:00,48.1,38.0,30.05,West,260,0.0,7.0,68,0.00,,,0.00,weatherlink.com 1.10,2013-03-09 08:44:00,
2013-03-09 01:00:00,48.1,38.0,30.05,West,263,2.0,6.0,68,0.00,,,0.00,weatherlink.com 1.10,2013-03-09 09:00:00,
2013-03-09 01:15:00,48.2,38.0,30.05,West,265,3.0,8.0,68,0.00,,,0.00,weatherlink.com 1.10,2013-03-09 09:15:00,
2013-03-09 01:30:00,48.3,38.0,30.05,West,273,7.0,11.0,67,0.00,,,0.00,weatherlink.com 1.10,2013-03-09 09:30:00,
2013-03-09 01:45:00,48.4,38.0,30.05,West,275,3.0,9.0,67,0.00,,,0.00,weatherlink.com 1.10,2013-03-09 09:45:00,
2013-03-09 02:00:00,48.4,38.0,30.05,WSW,248,4.0,10.0,67,0.00,,,0.00,weatherlink.com 1.10,2013-03-09 10:00:00,
2013-03-09 02:15:00,48.2,38.0,30.04,WSW,248,3.0,11.0,69,0.00,,,0.00,weatherlink.com 1.10,2013-03-09 10:15:00,
2013-03-09 02:30:00,48.1,38.0,30.04,SW,233,4.0,8.0,69,0.00,,,0.00,weatherlink.com 1.10,2013-03-09 10:30:00,
2013-03-09 02:45:00,48.2,38.0,30.04,WSW,254,4.0,13.0,68,0.00,,,0.00,weatherlink.com 1.10,2013-03-09 10:45:00,
2013-03-09 03:00:00,48.1,38.0,30.05,West,259,3.0,10.0,68,0.00,,,0.00,weatherlink.com 1.10,2013-03-09 11:00:00,
2013-03-09 03:15:00,48.1,38.0,30.05,SW,235,5.0,7.0,68,0.00,,,0.00,weatherlink.com 1.10,2013-03-09 11:15:00,
2013-03-09 03:30:00,48.1,38.0,30.05,WSW,244,2.0,12.0,67,0.00,,,0.00,weatherlink.com 1.10,2013-03-09 11:30:00,
2013-03-09 03:45:00,48.1,38.0,30.05,WSW,248,3.0,6.0,67,0.00,,,0.00,weatherlink.com 1.10,2013-03-09 11:45:00,
2013-03-09 04:00:00,48.1,38.0,30.06,WSW,256,4.0,6.0,67,0.00,,,0.00,weatherlink.com 1.10,2013-03-09 12:00:00,
2013-03-09 04:15:00,48.1,38.0,30.07,WSW,250,1.0,4.0,67,0.00,,,0.00,weatherlink.com 1.10,2013-03-09 12:15:00,
2013-03-09 04:30:00,48.1,38.0,30.08,WSW,247,0.0,1.0,67,0.00,,,0.00,weatherlink.com 1.10,2013-03-09 12:30:00,
2013-03-09 04:45:00,47.8,38.0,30.08,WSW,248,0.0,0.0,68,0.00,,,0.00,weatherlink.com 1.10,2013-03-09 12:45:00,
2013-03-09 05:00:00,47.9,37.0,30.09,WSW,247,2.0,4.0,67,0.00,,,0.00,weatherlink.com 1.10,2013-03-09 13:00:00,
2013-03-09 05:15:00,47.9,37.0,30.09,WSW,248,1.0,2.0,67,0.00,,,0.00,weatherlink.com 1.10,2013-03-09 13:15:00,
2013-03-09 05:30:00,48.1,38.0,30.10,WSW,246,0.0,5.0,67,0.00,,,0.00,weatherlink.com 1.10,2013-03-09 13:30:00,
2013-03-09 05:45:00,48.3,37.0,30.11,WSW,250,5.0,8.0,66,0.00,,,0.00,weatherlink.com 1.10,2013-03-09 13:45:00,
2013-03-09 06:00:00,48.4,37.0,30.11,WSW,239,6.0,8.0,65,0.00,,,0.00,weatherlink.com 1.10,2013-03-09 14:00:00,
2013-03-09 06:15:00,48.2,37.0,30.11,SW,217,0.0,5.0,65,0.00,,,0.00,weatherlink.com 1.10,2013-03-09 14:15:00,
2013-03-09 06:30:00,48.2,37.0,30.12,SW,229,3.0,5.0,65,0.00,,,0.00,weatherlink.com 1.10,2013-03-09 14:30:00,
2013-03-09 06:45:00,48.3,37.0,30.13,WNW,287,3.0,6.0,65,0.00,,,0.00,weatherlink.com 1.10,2013-03-09 14:45:00,
2013-03-09 07:00:00,48.8,37.0,30.13,WSW,242,4.0,11.0,63,0.00,,,0.00,weatherlink.com 1.10,2013-03-09 15:00:00,
2013-03-09 07:15:00,49.2,37.0,30.14,WSW,245,4.0,9.0,62,0.00,,,0.00,weatherlink.com 1.10,2013-03-09 15:15:00,
2013-03-09 07:30:00,49.8,37.0,30.14,WSW,248,5.0,8.0,61,0.00,,,0.00,weatherlink.com 1.10,2013-03-09 15:30:00,
2013-03-09 07:45:00,50.5,37.0,30.14,WSW,244,5.0,6.0,60,0.00,,,0.00,weatherlink.com 1.10,2013-03-09 15:45:00,
2013-03-09 08:00:00,51.3,37.0,30.15,WSW,251,2.0,8.0,59,0.00,,,0.00,weatherlink.com 1.10,2013-03-09 16:00:00,
2013-03-09 08:15:00,51.9,37.0,30.16,WSW,238,0.0,7.0,58,0.00,,,0.00,weatherlink.com 1.10,2013-03-09 16:15:00,
2013-03-09 08:30:00,53.2,37.0,30.16,NW,306,4.0,4.0,55,0.00,,,0.00,weatherlink.com 1.10,2013-03-09 16:30:00,
2013-03-09 08:46:00,54.2,38.0,30.17,SW,217,1.0,7.0,54,0.00,,,0.00,weatherlink.com 1.10,2013-03-09 16:46:00,
2013-03-09 09:01:00,55.3,38.0,30.17,NNW,346,1.0,6.0,53,0.00,,,0.00,weatherlink.com 1.10,2013-03-09 17:01:00,
2013-03-09 09:16:00,55.2,38.0,30.18,NNE,28,2.0,5.0,53,0.00,,,0.00,weatherlink.com 1.10,2013-03-09 17:16:00,
2013-03-09 09:31:00,56.0,37.0,30.18,West,260,0.0,10.0,50,0.00,,,0.00,weatherlink.com 1.10,2013-03-09 17:31:00,
2013-03-09 09:46:00,56.8,37.0,30.18,North,349,2.0,11.0,47,0.00,,,0.00,weatherlink.com 1.10,2013-03-09 17:46:00,
2013-03-09 10:01:00,56.9,37.0,30.19,NE,35,8.0,15.0,47,0.00,,,0.00,weatherlink.com 1.10,2013-03-09 18:01:00,
2013-03-09 10:16:00,57.0,39.0,30.20,NNW,329,8.0,10.0,51,0.00,,,0.00,weatherlink.com 1.10,2013-03-09 18:16:00,
2013-03-09 10:31:00,56.8,39.0,30.20,NNE,19,4.0,9.0,51,0.00,,,0.00,weatherlink.com 1.10,2013-03-09 18:31:00,
2013-03-09 10:46:00,56.7,40.0,30.21,NE,47,1.0,10.0,53,0.00,,,0.00,weatherlink.com 1.10,2013-03-09 18:46:00,
2013-03-09 11:01:00,56.0,40.0,30.21,ENE,63,2.0,6.0,55,0.00,,,0.00,weatherlink.com 1.10,2013-03-09 19:01:00,
2013-03-09 11:16:00,56.3,40.0,30.21,ESE,110,2.0,8.0,54,0.00,,,0.00,weatherlink.com 1.10,2013-03-09 19:16:00,
2013-03-09 11:31:00,57.6,39.0,30.22,ESE,107,2.0,5.0,51,0.00,,,0.00,weatherlink.com 1.10,2013-03-09 19:31:00,
2013-03-09 11:46:00,57.8,39.0,30.21,SSE,164,0.0,6.0,50,0.00,,,0.00,weatherlink.com 1.10,2013-03-09 19:46:00,
2013-03-09 12:01:00,60.0,39.0,30.21,SE,133,1.0,3.0,47,0.00,,,0.00,weatherlink.com 1.10,2013-03-09 20:01:00,
2013-03-09 12:16:00,61.7,39.0,30.21,South,185,0.0,6.0,44,0.00,,,0.00,weatherlink.com 1.10,2013-03-09 20:16:00,
2013-03-09 12:31:00,63.7,38.0,30.21,ENE,69,2.0,4.0,39,0.00,,,0.00,weatherlink.com 1.10,2013-03-09 20:31:00,
2013-03-09 12:46:00,63.9,37.0,30.20,West,281,3.0,5.0,37,0.00,,,0.00,weatherlink.com 1.10,2013-03-09 20:46:00,
2013-03-09 13:01:00,63.2,36.0,30.20,North,350,5.0,10.0,36,0.00,,,0.00,weatherlink.com 1.10,2013-03-09 21:01:00,
2013-03-09 13:16:00,63.1,34.0,30.20,NNW,346,2.0,7.0,34,0.00,,,0.00,weatherlink.com 1.10,2013-03-09 21:16:00,
2013-03-09 13:31:00,63.4,34.0,30.20,NNE,25,3.0,8.0,34,0.00,,,0.00,weatherlink.com 1.10,2013-03-09 21:31:00,
2013-03-09 13:46:00,63.4,34.0,30.21,NE,52,2.0,9.0,34,0.00,,,0.00,weatherlink.com 1.10,2013-03-09 21:46:00,
2013-03-09 14:01:00,63.4,34.0,30.21,North,5,6.0,9.0,34,0.00,,,0.00,weatherlink.com 1.10,2013-03-09 22:01:00,
2013-03-09 14:16:00,63.5,34.0,30.21,NNW,345,0.0,7.0,34,0.00,,,0.00,weatherlink.com 1.10,2013-03-09 22:16:00,
2013-03-09 14:31:00,63.4,34.0,30.21,North,5,6.0,10.0,33,0.00,,,0.00,weatherlink.com 1.10,2013-03-09 22:31:00,
2013-03-09 14:46:00,63.5,34.0,30.21,North,355,1.0,10.0,33,0.00,,,0.00,weatherlink.com 1.10,2013-03-09 22:46:00,
2013-03-09 15:01:00,63.3,34.0,30.22,NNW,346,5.0,12.0,33,0.00,,,0.00,weatherlink.com 1.10,2013-03-09 23:01:00,
2013-03-09 15:16:00,64.7,35.0,30.22,NNE,13,1.0,5.0,33,0.00,,,0.00,weatherlink.com 1.10,2013-03-09 23:16:00,
2013-03-09 15:31:00,63.6,34.0,30.21,NE,46,4.0,7.0,33,0.00,,,0.00,weatherlink.com 1.10,2013-03-09 23:31:00,
2013-03-09 15:46:00,64.1,33.0,30.21,NE,51,3.0,8.0,32,0.00,,,0.00,weatherlink.com 1.10,2013-03-09 23:46:00,
2013-03-09 16:01:00,64.5,33.0,30.21,North,5,3.0,8.0,31,0.00,,,0.00,weatherlink.com 1.10,2013-03-10 00:01:00,
2013-03-09 16:16:00,64.0,33.0,30.21,NNE,26,1.0,9.0,31,0.00,,,0.00,weatherlink.com 1.10,2013-03-10 00:16:00,
2013-03-09 16:31:00,64.4,32.0,30.21,North,351,3.0,10.0,30,0.00,,,0.00,weatherlink.com 1.10,2013-03-10 00:31:00,
2013-03-09 16:46:00,64.2,32.0,30.21,NNE,21,8.0,12.0,30,0.00,,,0.00,weatherlink.com 1.10,2013-03-10 00:46:00,
2013-03-09 17:01:00,63.8,32.0,30.22,NW,319,1.0,16.0,30,0.00,,,0.00,weatherlink.com 1.10,2013-03-10 01:01:00,
2013-03-09 17:16:00,63.2,31.0,30.22,NNW,328,4.0,12.0,30,0.00,,,0.00,weatherlink.com 1.10,2013-03-10 01:16:00,
2013-03-09 17:31:00,62.6,31.0,30.23,WNW,301,3.0,9.0,31,0.00,,,0.00,weatherlink.com 1.10,2013-03-10 01:31:00,
2013-03-09 17:46:00,62.1,31.0,30.23,NW,324,2.0,10.0,31,0.00,,,0.00,weatherlink.com 1.10,2013-03-10 01:46:00,
2013-03-09 18:01:00,61.4,31.0,30.24,North,351,0.0,7.0,32,0.00,,,0.00,weatherlink.com 1.10,2013-03-10 02:01:00,
2013-03-09 18:16:00,60.7,31.0,30.25,North,355,0.0,3.0,33,0.00,,,0.00,weatherlink.com 1.10,2013-03-10 02:16:00,
2013-03-09 18:32:00,60.0,32.0,30.26,North,355,0.0,0.0,35,0.00,,,0.00,weatherlink.com 1.10,2013-03-10 02:32:00,
2013-03-09 18:47:00,59.4,32.0,30.26,North,355,0.0,0.0,35,0.00,,,0.00,weatherlink.com 1.10,2013-03-10 02:47:00,
2013-03-09 19:02:00,58.7,34.0,30.27,East,84,1.0,7.0,40,0.00,,,0.00,weatherlink.com 1.10,2013-03-10 03:02:00,
2013-03-09 19:17:00,58.3,36.0,30.28,East,93,1.0,5.0,43,0.00,,,0.00,weatherlink.com 1.10,2013-03-10 03:17:00,
2013-03-09 19:32:00,57.6,38.0,30.29,ENE,67,4.0,5.0,48,0.00,,,0.00,weatherlink.com 1.10,2013-03-10 03:32:00,
2013-03-09 19:47:00,56.8,39.0,30.30,East,86,1.0,4.0,52,0.00,,,0.00,weatherlink.com 1.10,2013-03-10 03:47:00,
2013-03-09 20:17:00,55.7,40.0,30.32,ENE,63,4.0,4.0,56,0.00,,,0.00,weatherlink.com 1.10,2013-03-10 04:17:00,
2013-03-09 20:32:00,55.4,40.0,30.32,ENE,63,0.0,3.0,57,0.00,,,0.00,weatherlink.com 1.10,2013-03-10 04:32:00,
2013-03-09 20:47:00,55.0,40.0,30.33,ENE,63,0.0,2.0,58,0.00,,,0.00,weatherlink.com 1.10,2013-03-10 04:47:00,
2013-03-09 21:02:00,54.7,40.0,30.34,ESE,109,0.0,2.0,59,0.00,,,0.00,weatherlink.com 1.10,2013-03-10 05:02:00,
2013-03-09 21:19:00,54.1,40.0,30.34,North,355,1.0,3.0,60,0.00,,,0.00,weatherlink.com 1.10,2013-03-10 05:19:00,
2013-03-09 21:32:00,53.6,40.0,30.34,North,355,0.0,0.0,61,0.00,,,0.00,weatherlink.com 1.10,2013-03-10 05:32:00,
2013-03-09 21:47:00,53.1,40.0,30.35,North,355,0.0,0.0,61,0.00,,,0.00,weatherlink.com 1.10,2013-03-10 05:47:00,
2013-03-09 22:02:00,52.5,39.0,30.35,North,355,0.0,0.0,61,0.00,,,0.00,weatherlink.com 1.10,2013-03-10 06:02:00,
2013-03-09 22:17:00,51.6,40.0,30.36,North,355,0.0,2.0,64,0.00,,,0.00,weatherlink.com 1.10,2013-03-10 06:17:00,
2013-03-09 22:32:00,51.2,40.0,30.36,North,355,0.0,0.0,65,0.00,,,0.00,weatherlink.com 1.10,2013-03-10 06:32:00,
2013-03-09 22:47:00,50.7,39.0,30.36,North,355,0.0,1.0,65,0.00,,,0.00,weatherlink.com 1.10,2013-03-10 06:47:00,
2013-03-09 23:02:00,49.8,40.0,30.37,North,355,0.0,1.0,68,0.00,,,0.00,weatherlink.com 1.10,2013-03-10 07:02:00,
2013-03-09 23:17:00,49.7,39.0,30.37,North,350,0.0,2.0,68,0.00,,,0.00,weatherlink.com 1.10,2013-03-10 07:17:00,
2013-03-09 23:32:00,49.6,39.0,30.37,WSW,257,2.0,3.0,67,0.00,,,0.00,weatherlink.com 1.10,2013-03-10 07:32:00,
2013-03-09 23:47:00,49.4,38.0,30.38,West,259,0.0,1.0,66,0.00,,,0.00,weatherlink.com 1.10,2013-03-10 07:47:00,